Terminal Aerodrome Forecast
Issued by NWS

Home | Current Version | Previous Version | Text Only | Print | Product List | Glossary On
Versions: 1 2 3 4 5 6 7 8 9 10 11 12 13 14 15 16 17 18 19 20
043
FTUS46 KPDT 201139
TAFPSC
TAF
KPSC 201139Z 2012/2112 VRB05KT P6SM -SHRA SCT050 OVC080
     FM201900 25009KT P6SM VCSH SCT045 BKN080
     FM202200 24015G25KT P6SM BKN080
     FM210200 23010KT P6SM BKN090
     FM211000 VRB05KT P6SM VCSH SCT050 BKN070=

USA.gov is the U.S. government's official web portal to all federal, state and local government web resources and services.